Midland, MI

5:07 PM EDT on June 24, 2018 (GMT -0400)
Barstow

Weather History for KIKW - September, 2017

Change the Weather History Date:

Wednesday, September 13, 2017

  Actual Average (KMBS) Record (KMBS)
Temperature  
Mean Temperature 60 °F -  
Max Temperature 78 °F 73 °F 91 °F (2005)
Min Temperature 43 °F 50 °F 43 °F (2013)
Degree Days  
Heating Degree Days 4    
Growing Degree Days 10 (Base 50)    
Moisture  
Dew Point 52 °F    
Average Humidity 75    
Maximum Humidity 100    
Minimum Humidity 39    
Precipitation  
Precipitation 0.00 in - - ()
Sea Level Pressure  
Sea Level Pressure 29.82 in    
Wind  
Wind Speed 1 mph (ENE)    
Max Wind Speed 7 mph    
Max Gust Speed -    
Visibility 10 miles    
Events      
Averages and records for this station are not official NWS values.
T = Trace of Precipitation, MM = Missing Value Source: NWS Daily Summary

Daily Weather History Graph

Daily Weather History Graph

Search for Another Location

Airport or City:

Astronomy

Sep. 13, 2017 Rise Set
Actual Time 7:14 AM EDT 7:50 PM EDT
Civil Twilight 6:45 AM EDT 8:19 PM EDT
Nautical Twilight 6:11 AM EDT 8:53 PM EDT
Astronomical Twilight 5:35 AM EDT 9:28 PM EDT
Moon 12:10 AM EDT (9/13) 3:13 PM EDT (9/13)
Length of Visible Light 13h 33m
Length of Day
12h 36m
Last Quarter, 46% of the Moon is Illuminated
Sep 13
Last Quarter
Sep 20
New
Sep 27
First Quarter
Oct 5
Full
Oct 12
Last Quarter

Hourly Weather History & Observations

Time (EDT) Temp. Windchill Dew Point Humidity Pressure Visibility Wind Dir Wind Speed Gust Speed Precip Events Conditions
12:13 AM 52.0 °F - 51.8 °F 99% 29.88 in 10.0 mi Calm Calm - N/A   Clear
12:34 AM 52.2 °F - 52.0 °F 99% 29.87 in 10.0 mi Calm Calm - N/A   Clear
12:53 AM 52.3 °F - 52.2 °F 99% 29.87 in 10.0 mi Calm Calm - N/A   Clear
1:13 AM 50.5 °F - 50.5 °F 100% 29.87 in 10.0 mi Calm Calm - N/A   Clear
1:34 AM 50.0 °F - 49.8 °F 99% 29.87 in 10.0 mi Calm Calm - N/A   Clear
1:53 AM 50.0 °F - 49.8 °F 99% 29.86 in 10.0 mi Calm Calm - N/A   Clear
2:13 AM 49.8 °F - 49.8 °F 100% 29.86 in 5.0 mi Calm Calm - N/A   Clear
2:33 AM 49.8 °F - 49.8 °F 100% 29.86 in 10.0 mi Calm Calm - N/A   Clear
2:53 AM 48.4 °F - 48.4 °F 100% 29.86 in 10.0 mi Calm Calm - N/A   Clear
3:13 AM 48.7 °F - 48.7 °F 100% 29.86 in 4.0 mi Calm Calm - N/A   Clear
3:33 AM 47.3 °F - 47.3 °F 100% 29.85 in 10.0 mi NNW 4.6 mph - N/A   Clear
3:53 AM 48.2 °F - 48.2 °F 100% 29.85 in 10.0 mi Calm Calm - N/A   Clear
4:14 AM 46.6 °F - 46.6 °F 100% 29.86 in 10.0 mi Calm Calm - N/A   Clear
4:33 AM 46.8 °F - 46.8 °F 100% 29.86 in 7.0 mi Calm Calm - N/A   Clear
4:53 AM 45.7 °F - 45.7 °F 100% 29.86 in 10.0 mi Calm Calm - N/A   Clear
5:14 AM 45.5 °F - 45.5 °F 100% 29.86 in 10.0 mi Calm Calm - N/A   Clear
5:33 AM 45.1 °F - 45.1 °F 100% 29.86 in 5.0 mi Calm Calm - N/A   Clear
5:53 AM 44.6 °F 43.1 °F 44.6 °F 100% 29.86 in 10.0 mi NNW 3.5 mph - N/A   Clear
6:14 AM 44.6 °F - 44.6 °F 100% 29.86 in 10.0 mi Calm Calm - N/A   Clear
6:33 AM 44.4 °F - 44.4 °F 100% 29.86 in 10.0 mi Calm Calm - N/A   Clear
6:53 AM 44.6 °F - 44.6 °F 100% 29.86 in - Calm Calm - N/A   Unknown
7:14 AM 43.9 °F - 43.9 °F 100% 29.86 in 7.0 mi Calm Calm - N/A   Clear
7:33 AM 43.9 °F - 43.9 °F 100% 29.86 in 7.0 mi Calm Calm - N/A   Clear
7:53 AM 44.1 °F - 44.1 °F 100% 29.86 in 10.0 mi Calm Calm - N/A   Clear
8:14 AM 45.5 °F - 45.5 °F 100% 29.86 in 10.0 mi Calm Calm - N/A   Clear
8:33 AM 47.5 °F - 47.5 °F 100% 29.86 in 10.0 mi Calm Calm - N/A   Clear
8:53 AM 49.8 °F - 49.8 °F 100% 29.85 in 10.0 mi Calm Calm - N/A   Clear
9:14 AM 52.5 °F - 52.0 °F 98% 29.85 in 10.0 mi Calm Calm - N/A   Clear
9:33 AM 54.9 °F - 53.6 °F 96% 29.85 in 10.0 mi Calm Calm - N/A   Clear
9:53 AM 57.7 °F - 56.1 °F 94% 29.85 in 10.0 mi Calm Calm - N/A   Clear
10:14 AM 60.1 °F - 56.8 °F 89% 29.84 in 10.0 mi Calm Calm - N/A   Clear
10:33 AM 63.1 °F - 57.2 °F 81% 29.84 in 10.0 mi Calm Calm - N/A   Clear
10:54 AM 66.4 °F - 57.7 °F 74% 29.84 in 7.0 mi Calm Calm - N/A   Clear
11:13 AM 68.5 °F - 57.4 °F 67% 29.84 in 10.0 mi Calm Calm - N/A   Clear
11:34 AM 70.5 °F - 55.6 °F 59% 29.83 in 10.0 mi East 4.6 mph - N/A   Clear
11:53 AM 71.2 °F - 55.6 °F 58% 29.82 in 10.0 mi East 3.5 mph - N/A   Clear
12:14 PM 72.9 °F - 56.3 °F 56% 29.81 in 10.0 mi NE 3.5 mph - N/A   Clear
12:33 PM 73.4 °F - 54.5 °F 51% 29.81 in 10.0 mi Calm Calm - N/A   Clear
12:53 PM 74.5 °F - 55.6 °F 52% 29.81 in 10.0 mi East 4.6 mph - N/A   Clear
1:14 PM 75.6 °F - 54.5 °F 48% 29.80 in 10.0 mi ENE 5.8 mph - N/A   Clear
1:33 PM 76.5 °F - 53.6 °F 45% 29.79 in 10.0 mi ENE 6.9 mph - N/A   Clear
1:53 PM 77.0 °F - 51.6 °F 41% 29.78 in 10.0 mi NNE 4.6 mph - N/A   Clear
2:14 PM 77.5 °F - 51.3 °F 40% 29.78 in 10.0 mi NE 3.5 mph - N/A   Clear
2:33 PM 78.3 °F - 51.8 °F 40% 29.77 in 10.0 mi ESE 5.8 mph - N/A   Clear
2:53 PM 77.9 °F - 51.3 °F 39% 29.77 in 10.0 mi Calm Calm - N/A   Scattered Clouds
3:14 PM 77.7 °F - 52.0 °F 41% 29.76 in 10.0 mi ENE 6.9 mph - N/A   Clear
3:33 PM 77.5 °F - 50.7 °F 39% 29.76 in 10.0 mi Calm Calm - N/A   Mostly Cloudy
3:53 PM 77.2 °F - 52.2 °F 42% 29.76 in 10.0 mi ENE 3.5 mph - N/A   Overcast
4:14 PM 77.5 °F - 54.0 °F 44% 29.75 in 10.0 mi ENE 6.9 mph - N/A   Overcast
4:33 PM 77.0 °F - 54.7 °F 46% 29.75 in 10.0 mi ENE 5.8 mph - N/A   Overcast
4:53 PM 77.5 °F - 54.5 °F 45% 29.76 in 10.0 mi East 4.6 mph - N/A   Overcast
5:14 PM 77.2 °F - 54.7 °F 46% 29.76 in 10.0 mi SSE 5.8 mph - N/A   Overcast
5:33 PM 77.0 °F - 54.9 °F 46% 29.76 in 10.0 mi East 6.9 mph - N/A   Overcast
5:53 PM 76.1 °F - 54.0 °F 46% 29.76 in 10.0 mi East 5.8 mph - N/A   Overcast
6:14 PM 75.2 °F - 54.0 °F 47% 29.76 in 10.0 mi ESE 4.6 mph - N/A   Overcast
6:33 PM 73.9 °F - 55.2 °F 52% 29.76 in 10.0 mi ENE 4.6 mph - N/A   Overcast
6:53 PM 73.4 °F - 55.4 °F 53% 29.77 in 10.0 mi East 6.9 mph - N/A   Overcast
7:14 PM 71.4 °F - 55.2 °F 57% 29.77 in 10.0 mi East 6.9 mph - N/A   Overcast
7:33 PM 70.2 °F - 55.8 °F 60% 29.77 in 10.0 mi Calm Calm - N/A   Overcast
7:54 PM 70.0 °F - 55.8 °F 61% 29.77 in 10.0 mi East 3.5 mph - N/A   Overcast
8:13 PM 69.3 °F - 55.8 °F 62% 29.77 in 10.0 mi East 3.5 mph - N/A   Overcast
8:34 PM 68.9 °F - 55.9 °F 63% 29.78 in 10.0 mi Calm Calm - N/A   Overcast
8:54 PM 68.2 °F - 56.1 °F 65% 29.78 in 10.0 mi Calm Calm - N/A   Overcast
9:13 PM 68.5 °F - 56.1 °F 64% 29.79 in 10.0 mi Calm Calm - N/A   Overcast
9:34 PM 68.9 °F - 55.8 °F 63% 29.79 in 10.0 mi Calm Calm - N/A   Overcast
9:54 PM 66.4 °F - 58.1 °F 75% 29.80 in 10.0 mi Calm Calm - N/A   Overcast
10:13 PM 65.1 °F - 58.6 °F 79% 29.80 in 10.0 mi Calm Calm - N/A   Overcast
10:34 PM 64.8 °F - 58.3 °F 79% 29.80 in 10.0 mi Calm Calm - N/A   Overcast
10:54 PM 65.1 °F - 57.7 °F 77% 29.80 in 10.0 mi Calm Calm - N/A   Overcast
11:13 PM 64.6 °F - 58.3 °F 80% 29.80 in 10.0 mi Calm Calm - N/A   Overcast
11:34 PM 63.9 °F - 58.1 °F 81% 29.81 in 10.0 mi Calm Calm - N/A   Overcast
11:53 PM 64.9 °F - 58.1 °F 78% 29.80 in 10.0 mi Calm Calm - N/A   Overcast